Bewolking Meer informatie Parkstad Weather Satellite


Neerslagradar Meer informatie Parkstad Rain Snow Radar


Onweersbuien Meer informatie Parkstad Lighntning


24/7 Weercamera Meer informatie Parkstad Weathercam


Natuurbrandrisico
CBI






Het weer levert geen direct gevaar op in Parkstad.    Er zijn geen waarschuwingen afgegeven voor Parkstad (045)

METAR rapporten vliegvelden

   
EHBK - Beek Nederland
Gewijzigd: 19-10-2019 05:55
Gedeeltelijk bewolkt  
Gedeeltelijk bewolkt  
   Wind: Zuiden 20.4 km/h
Wind: Zuiden 20.4 km/h
Temperatuur: 12°C
Dauwpunt: 9°C
Vochtigheid: 82%
Barometer: 1005 hPa
Satelliet beelden: Gedeeltelijk bewolkt
Zicht: meer dan 10 km
Bewolking: Gedeeltelijk bewolkt
EHBK 190355Z AUTO 18011KT 160V220 9999 NSC 12/09 Q1005 NOSIG
EHBK - Maastricht Nederland
Gewijzigd: 19-10-2019 05:55
Gedeeltelijk bewolkt  
Gedeeltelijk bewolkt  
   Wind: Zuiden 20.4 km/h
Wind: Zuiden 20.4 km/h
Temperatuur: 12°C
Dauwpunt: 9°C
Vochtigheid: 82%
Barometer: 1005 hPa
Satelliet beelden: Gedeeltelijk bewolkt
Zicht: meer dan 10 km
Bewolking: Gedeeltelijk bewolkt
EHBK 190355Z AUTO 18011KT 160V220 9999 NSC 12/09 Q1005 NOSIG
EBLG - Liège België
Gewijzigd: 19-10-2019 05:50
Helder  
Helder  
   Wind: Zuiden 18.5 km/h
Wind: Zuiden 18.5 km/h
Temperatuur: 12°C
Dauwpunt: 9°C
Vochtigheid: 82%
Barometer: 1005 hPa
Zicht: meer dan 10 km
Bewolking: Helder
EBLG 190350Z 18010KT CAVOK 12/09 Q1005 NOSIG
EDDK - Köln/Bonn Duitsland
Gewijzigd: 19-10-2019 06:20
Helder  
Helder  
   Wind: ZO 13 km/h
Wind: ZO 13 km/h
Temperatuur: 12°C
Dauwpunt: 8°C
Vochtigheid: 77%
Barometer: 1007 hPa
Zicht: meer dan 10 km
Bewolking: Helder
EDDK 190420Z 13007KT CAVOK 12/08 Q1007 NOSIG
EDDL - Düsseldorf Duitsland
Gewijzigd: 19-10-2019 05:50
Helder  
Helder  
   Wind: ZZO 24.1 km/h
Wind: ZZO 24.1 km/h
Temperatuur: 12°C
Dauwpunt: 8°C
Vochtigheid: 77%
Barometer: 1006 hPa
Zicht: meer dan 10 km
Bewolking: Helder
EDDL 190350Z 15013KT CAVOK 12/08 Q1006 NOSIG
EHEH - Eindhoven Nederland
Gewijzigd: 19-10-2019 05:55
Motregen, Bewolking  
Motregen, Bewolking  
   Wind: Zuiden 14.8 km/h
Wind: Zuiden 14.8 km/h
Temperatuur: 12°C
Dauwpunt: 10°C
Vochtigheid: 88%
Barometer: 1004 hPa
Satelliet beelden: Bewolking
Zicht: meer dan 10 km
Bewolking: Gedeeltelijk bewolkt 1615 m,
Grotendeels bewolkt 1829 m,
Bewolking 2225 m
EHEH 190355Z AUTO 18008KT 160V230 9999 DZ SCT053 BKN060 OVC073 12/10 Q1004 BLU
ELLX - Luxemburg Luxemburg
Gewijzigd: 19-10-2019 05:50
Grotendeels bewolkt  
Grotendeels bewolkt  
   Wind: Zuiden 11.1 km/h
Wind: Zuiden 11.1 km/h
Temperatuur: 10°C
Voelt als: 8°C
Dauwpunt: 9°C
Vochtigheid: 94%
Barometer: 1008 hPa
Satelliet beelden: Grotendeels bewolkt
Zicht: meer dan 10 km
Bewolking: Gedeeltelijk bewolkt 152 m,
Grotendeels bewolkt 793 m
ELLX 190350Z 17006KT 140V200 9999 SCT005 BKN026 10/09 Q1008 NOSIG
EGLL - London England
Gewijzigd: 19-10-2019 05:50
Helder  
Helder  
   Wind: Zuiden 11.1 km/h
Wind: Zuiden 11.1 km/h
Temperatuur: 10°C
Voelt als: 8°C
Dauwpunt: 9°C
Vochtigheid: 94%
Barometer: 998 hPa
Satelliet beelden: Helder
Zicht: meer dan 10 km
Bewolking: Helder
EGLL 190350Z AUTO 18006KT 9999 NCD 10/09 Q0998 NOSIG
EBAW - Antwerpen België
Gewijzigd: 19-10-2019 05:50
Wat regen mogelijk, Grotendeels bewolkt  
Wat regen mogelijk, Grotendeels bewolkt  
   Wind: Zuiden 11.1 km/h
Wind: Zuiden 11.1 km/h
Temperatuur: 12°C
Dauwpunt: 11°C
Vochtigheid: 94%
Barometer: 1004 hPa
Satelliet beelden: Grotendeels bewolkt
Zicht: meer dan 10 km
Bewolking: Licht bewolkt 457 m,
Gedeeltelijk bewolkt 610 m,
Grotendeels bewolkt 732 m
EBAW 190350Z AUTO 18006KT 9999 -RA FEW015/// SCT020/// BKN024/// 12/11 Q1004
EBOS - Oostende België
Gewijzigd: 19-10-2019 05:50
Licht bewolkt  
Licht bewolkt  
   Wind: Zuiden 16.7 km/h
Wind: Zuiden 16.7 km/h
Temperatuur: 11°C
Dauwpunt: 9°C
Vochtigheid: 88%
Barometer: 1002 hPa
Satelliet beelden: Licht bewolkt
Zicht: meer dan 10 km
Bewolking: Licht bewolkt 762 m
EBOS 190350Z 18009KT 9999 FEW025 11/09 Q1002 NOSIG
LEAL - La Nucia Spanje
Gewijzigd: 19-10-2019 06:00
Helder  
Helder  
   Wind: Westen 5.6 km/h
Wind: Westen 5.6 km/h
Temperatuur: 13°C
Dauwpunt: 11°C
Vochtigheid: 88%
Barometer: 1011 hPa
Zicht: meer dan 10 km
Bewolking: Helder
LEAL 190400Z 26003KT CAVOK 13/11 Q1011 NOSIG
TNCA - Oranjestad Aruba
Gewijzigd: 19-10-2019 05:00
Verouderd
Licht bewolkt  
Licht bewolkt  
   Wind: Oosten 13 km/h
Wind: Oosten 13 km/h
Temperatuur: 28°C
Gevoelstemperatuur: 33°C
Dauwpunt: 25°C
Vochtigheid: 84%
Barometer: 1012 hPa
Satelliet beelden: Licht bewolkt
Zicht: meer dan 10 km
Bewolking: Licht bewolkt 549 m
TNCA 190300Z 08007KT 9999 FEW018 28/25 Q1012 NOSIG
TNCC - Willemstad Curacao
Gewijzigd: 19-10-2019 06:00
Licht bewolkt  
Licht bewolkt  
   Wind: OZO 13 km/h
Wind: OZO 13 km/h
Temperatuur: 28°C
Gevoelstemperatuur: 32°C
Dauwpunt: 24°C
Vochtigheid: 79%
Barometer: 1011 hPa
Satelliet beelden: Licht bewolkt
Zicht: meer dan 10 km
Bewolking: Licht bewolkt 549 m
TNCC 190400Z 12007KT 9999 FEW018 28/24 Q1011 NOSIG=
MTPP - Port au Prince Haitië
Gewijzigd: 18-10-2019 19:50
Verouderd
Licht bewolkt  
Licht bewolkt  
   Wind: varieert 3.7 km/h
Wind: varieert 3.7 km/h
Temperatuur: 32°C
Gevoelstemperatuur: 36°C
Dauwpunt: 22°C
Vochtigheid: 55%
Barometer: 1011 hPa
Satelliet beelden: Licht bewolkt
Zicht: meer dan 10 km
Bewolking: Licht bewolkt 853 m
MTPP 181750Z VRB02KT 9999 FEW028 32/22 Q1011 A2986
ENVA - Trondheim Noorwegen
Gewijzigd: 19-10-2019 06:20
Grotendeels bewolkt  
Grotendeels bewolkt  
   Wind: OZO 7.4 km/h
Wind: OZO 7.4 km/h
Temperatuur: 4°C
Voelt als: 2°C
Dauwpunt: 3°C
Vochtigheid: 93%
Barometer: 1004 hPa
Satelliet beelden: Grotendeels bewolkt
Zicht: meer dan 10 km
Bewolking: Gedeeltelijk bewolkt 823 m,
Grotendeels bewolkt 1311 m
ENVA 190420Z 11004KT 9999 SCT027 BKN043 04/03 Q1004 NOSIG RMK WIND 670FT VRB01KT
ENBO - Bodø Noorwegen
Gewijzigd: 19-10-2019 06:20
Grotendeels bewolkt  
Grotendeels bewolkt  
   Wind: NO 20.4 km/h
Wind: NO 20.4 km/h
Temperatuur: 4°C
Voelt als: 0°C
Dauwpunt: -1°C
Vochtigheid: 70%
Barometer: 1009 hPa
Satelliet beelden: Grotendeels bewolkt
Zicht: meer dan 10 km
Bewolking: Licht bewolkt 549 m,
Grotendeels bewolkt 1158 m
ENBO 190420Z 04011KT 010V070 9999 FEW018 BKN038 04/M01 Q1009
ETNG - Geilenkirchen Duitsland
Gewijzigd: 18-10-2019 19:50
Verouderd
Licht bewolkt  
Licht bewolkt  
   Wind: ZW 11.1 km/h
Wind: ZW 11.1 km/h
Temperatuur: 13°C
Dauwpunt: 7°C
Vochtigheid: 67%
Barometer: 1008 hPa
Satelliet beelden: Licht bewolkt
Zicht: meer dan 10 km
Bewolking: Licht bewolkt 1372 m
ETNG 181750Z 22006KT 9999 FEW045 13/07 Q1008 NOSIG
 

Script ontwikkeld door  Saratoga-weather.org Aangepast voor de template door  Weerstation Leuven

U vindt ons ook hier:

Het Weer Aktueel

WOW Nederland KNMI

Vereniging voor Weerkunde en Klimatologie

UK Met Office Weather Observation Website (WOW)

WeatherCloud

Weather Underground

Awekas

Weatherlink IP

HAMweather, WeatherForYou, PWS Weather

Citizen Weather Observer Program (CWOP)

Apparatuur in gebruik:

Hardwareleverancier
Weerhuisje

Weerstation
Vantage Pro2+ UV

Weercomputer's
alix3d2 & wl330n

Weerprogramma's
Smartbedded

Satelliet NOAA's
WRX137 & KX137

Satelliet Eumetsat
Ayecka SR1 & Triax

Bliksemdetectie
Boltek StormTracker

Webleverancier
F-Service

Weerhuisje

Vantage Pro2+ UV

alix3d2 & wl330n

Smartbedded

WRX137 & KX137

Ayecka SR1 & Triax

Boltek StormTracker

F-Service